Theta_e
305 306 306 306 307 306 306 305 304 305 305 305 304 304 305 306 306 306 306 306 306 306 305 307 309 312 313 312 314 313 316 316 315 312 309 306 305 305 306 305 305 306 305 305 305 305 305
305 306 306 306 307 307 306 306 305 304 305 305 306 303 303 305 305 305 305 306 306 306 305 307 309 311 311 313 312 313 314 310 311 310 306 305 306 304 304 303 304 304 305 305 304 305 305
305 306 305 307 307 307 307 306 305 305 304 304 304 304 304 304 305 305 305 305 306 306 306 308 311 312 312 312 312 312 311 309 309 307 305 305 305 305 304 304 304 304 304 303 303 304 304
305 305 306 306 307 308 308 307 306 305 304 304 304 304 304 304 304 304 304 306 311 311 308 309 310 310 311 310 312 311 307 306 306 306 305 305 305 304 304 303 303 304 303 304 302 305 305
305 305 306 306 307 308 307 307 306 306 304 304 304 303 303 303 303 301 303 310 312 309 310 310 309 308 308 311 311 309 308 306 306 306 305 305 304 304 304 303 302 302 304 305 306 305 306
305 305 305 306 307 307 307 306 306 306 304 304 303 303 303 303 299 299 308 308 309 310 309 309 309 310 308 311 308 308 306 306 305 304 305 305 303 303 303 302 303 303 303 304 306 305 306
305 305 305 306 307 307 304 304 304 306 304 303 301 303 302 303 301 302 308 306 305 309 310 311 310 311 310 307 306 306 306 305 305 303 305 305 305 303 302 302 301 302 304 304 304 304 305
304 304 305 306 307 307 304 304 304 305 305 304 303 301 301 301 301 302 303 301 301 303 309 307 309 308 307 308 307 307 306 306 306 305 304 303 304 303 302 302 303 304 305 305 305 306 307
304 304 304 305 306 307 305 304 304 306 305 304 303 298 299 300 300 301 301 302 302 303 309 307 307 309 309 308 308 307 306 306 306 306 305 304 304 304 304 304 305 305 305 305 306 306 308
303 304 304 304 305 306 306 306 304 304 304 302 300 299 298 298 300 300 301 302 302 303 302 307 308 307 308 308 309 307 307 307 307 306 306 305 304 305 305 306 305 310 306 307 308 310 314
304 304 304 304 304 305 306 306 306 304 303 302 300 299 300 301 300 300 301 302 303 302 301 307 308 306 307 309 307 307 307 309 310 311 306 305 306 308 310 311 308 312 309 310 310 313 315
305 303 304 304 305 305 305 305 305 306 304 300 300 300 300 300 301 302 302 303 302 301 307 310 308 308 309 308 309 308 307 307 307 310 309 305 306 309 308 310 309 310 311 312 312 315 317
307 303 304 304 304 305 305 305 305 305 305 303 300 302 302 301 300 302 302 300 301 303 306 310 310 310 310 311 310 310 308 309 309 310 306 307 310 310 309 312 311 312 314 316 313 319 319
307 305 302 303 304 304 305 305 305 305 304 304 301 300 302 301 301 302 301 300 305 310 310 308 309 308 309 310 310 311 310 309 307 309 311 311 308 311 311 312 316 317 318 320 320 319 319
308 306 303 303 303 304 304 305 305 305 304 304 301 300 301 302 301 302 301 307 309 309 309 308 308 311 312 313 312 311 312 311 312 309 313 317 312 312 312 313 314 319 321 317 321 321 321
308 308 305 301 303 302 304 305 305 305 303 303 300 299 301 303 302 301 303 310 308 307 308 309 311 310 311 311 313 312 314 311 314 311 311 315 317 311 313 312 313 317 316 321 319 320 322
308 307 305 302 301 302 304 305 305 305 303 302 300 298 302 303 301 301 307 308 307 306 307 309 308 312 312 312 313 314 313 312 313 313 312 314 316 313 313 316 317 318 319 318 317 319 321
308 307 305 303 299 302 303 304 304 305 302 302 298 299 302 302 302 296 302 304 306 306 306 308 308 307 310 311 313 313 313 311 310 310 313 311 313 316 314 312 311 312 315 315 317 319 316
308 307 306 304 297 302 303 303 304 304 302 301 296 294 302 302 303 298 302 305 305 307 307 308 309 308 307 309 312 311 311 310 310 311 312 311 311 313 312 312 311 312 313 312 314 312 313
307 308 307 305 296 302 304 304 304 304 301 301 295 298 298 296 297 302 304 305 306 305 307 307 307 307 308 308 307 309 308 309 307 309 311 309 308 310 313 313 310 311 310 313 313 313 317
307 307 307 305 296 303 304 305 304 302 301 301 294 296 297 298 300 300 302 304 307 308 306 305 308 307 308 308 306 308 308 306 307 306 308 306 309 306 307 308 308 309 309 312 313 313 316
306 307 307 306 296 303 304 303 301 302 302 301 298 298 295 297 298 301 301 305 307 306 307 308 308 307 307 310 309 310 308 306 307 304 305 304 308 309 308 307 307 309 307 309 311 313 314
306 306 307 306 297 302 303 302 301 302 302 300 298 299 297 296 298 299 301 303 305 304 307 307 307 307 308 309 305 304 304 304 305 305 304 305 305 305 307 304 304 306 305 309 309 308 311
306 306 307 306 300 302 302 302 301 302 303 302 301 297 297 301 299 301 302 303 304 304 307 307 305 307 307 302 302 302 302 302 302 302 301 305 305 302 304 301 299 303 304 306 308 307 307
305 306 306 307 303 300 302 302 302 302 302 302 301 299 295 299 298 301 301 301 302 302 304 306 306 304 300 302 305 305 303 303 304 303 302 301 303 304 303 302 300 304 304 306 308 308 304
307 306 306 306 305 298 302 302 301 301 302 302 300 300 296 296 298 299 300 301 302 301 302 303 302 301 302 302 304 307 304 306 306 303 301 301 301 303 304 304 302 299 304 302 303 305 301
308 306 306 306 306 297 302 301 301 300 301 300 298 299 298 297 295 296 299 301 299 300 300 299 301 304 301 303 307 305 303 302 305 305 305 303 302 304 304 304 303 299 303 302 307 302 303
309 307 306 305 306 301 301 301 301 301 301 301 299 298 298 295 295 294 297 298 298 298 302 300 301 300 302 304 306 303 302 301 303 301 303 303 302 303 303 305 303 301 303 305 302 300 303
310 308 306 306 305 305 297 301 301 301 301 300 300 299 297 296 297 298 298 299 300 300 298 297 300 300 301 300 301 300 305 298 299 304 298 302 302 302 302 303 300 299 301 300 298 301 303
Wind_Speed
26 26 26 26 28 28 29 30 32 34 36 39 40 32 23 15 9 8 4 2 2 3 3 3 0 8 13 5 4 14 9 15 18 15 9 5 4 3 5 4 3 2 0 2 5 9 8
27 26 26 27 28 28 28 27 28 28 28 29 26 23 19 14 11 7 5 4 4 6 5 3 3 8 6 5 4 13 11 13 15 14 8 5 4 4 5 3 2 2 2 6 8 9 5
25 26 28 28 29 29 28 25 24 24 24 24 22 21 16 13 11 10 10 9 8 7 6 3 5 19 5 7 9 11 17 12 14 17 5 7 8 5 3 3 0 1 4 6 2 2 3
25 25 28 30 30 30 29 25 20 20 20 20 20 19 18 16 13 12 11 8 10 4 6 7 19 18 4 12 14 16 18 17 18 18 16 11 13 6 3 3 4 3 2 4 1 2 3
24 26 28 29 31 32 29 25 20 15 15 17 17 17 16 16 14 13 10 16 17 19 18 19 15 12 3 9 12 14 13 12 18 16 13 9 5 3 3 3 2 5 1 2 7 1 2
24 25 28 30 32 32 30 26 21 13 12 15 16 17 17 18 16 12 14 23 25 22 15 17 20 11 3 4 7 11 9 9 6 6 5 5 4 3 2 2 1 0 2 3 6 3 1
23 25 28 30 32 32 32 27 22 17 12 15 17 16 16 22 19 11 11 6 5 6 15 7 5 14 5 10 10 9 6 9 3 6 3 3 3 2 4 4 3 4 1 6 9 12 9
23 23 26 29 31 30 32 31 25 19 13 15 17 16 14 19 26 13 13 5 2 1 10 16 13 11 12 3 6 4 3 3 2 3 3 3 1 3 3 3 2 2 6 7 10 4 2
23 23 24 27 30 29 27 31 30 20 14 16 18 15 13 15 19 27 22 10 4 4 5 7 7 5 4 10 5 3 1 2 3 3 2 2 1 5 4 3 3 4 5 4 7 8 13
23 23 23 24 27 28 27 25 27 24 18 17 18 19 9 6 9 9 7 12 5 6 5 10 8 5 3 1 3 1 0 2 1 1 4 3 3 3 2 2 6 5 9 9 9 6 4
23 22 23 23 23 26 27 26 25 25 21 17 16 14 17 16 6 5 7 5 6 3 6 7 4 6 7 3 5 1 3 4 3 4 3 4 1 3 6 6 9 5 1 6 9 11 8
23 22 23 23 22 23 24 24 23 22 23 19 14 13 9 8 16 9 6 4 5 6 3 2 4 2 2 2 2 2 2 3 1 3 3 6 3 4 5 2 7 3 6 8 9 4 4
23 23 22 23 23 23 23 22 23 21 19 17 10 11 13 7 3 4 1 3 5 6 1 3 3 2 3 3 2 2 2 1 1 3 5 5 2 2 3 3 2 5 4 3 3 3 5
23 24 23 23 24 24 24 24 22 23 21 18 10 7 8 6 2 1 1 5 9 4 4 1 1 1 2 4 2 1 1 2 4 3 2 4 6 5 4 4 1 3 3 2 4 2 5
23 22 23 23 24 25 25 24 24 24 23 20 7 5 4 11 2 4 4 6 3 1 0 4 1 2 0 2 1 1 1 1 1 6 2 2 4 2 4 3 2 1 3 3 4 3 3
23 22 24 24 24 25 26 26 25 26 27 13 1 1 4 6 5 2 5 7 3 2 2 1 1 0 2 1 1 1 2 2 1 5 4 2 4 2 0 2 4 6 5 1 1 3 3
23 23 23 24 25 25 26 27 27 26 27 13 2 3 8 4 3 6 5 3 2 2 1 1 1 1 3 3 2 2 1 3 3 4 8 3 2 4 1 5 4 1 2 2 1 2 2
22 23 24 26 25 25 26 27 26 26 25 10 3 3 9 4 5 2 2 4 4 3 1 2 1 1 3 4 1 1 3 5 7 6 6 5 2 4 5 2 1 3 2 4 2 1 1
19 22 24 26 26 25 25 25 22 22 21 5 3 2 4 2 4 1 3 3 2 6 4 4 2 2 2 0 1 4 2 1 6 6 4 5 2 4 3 2 1 2 3 4 2 0 2
18 21 23 25 27 26 28 24 17 16 14 4 3 2 4 4 2 5 4 2 4 4 1 3 4 3 3 4 1 3 4 2 2 2 5 4 2 4 4 4 0 5 4 2 4 2 3
16 19 22 24 26 26 27 23 17 14 10 4 3 1 3 0 4 3 2 3 3 6 4 6 3 4 2 4 5 5 3 5 1 5 1 2 3 2 5 7 2 4 3 2 5 4 3
15 17 20 22 24 23 22 20 18 17 7 7 3 3 2 2 2 1 3 1 3 1 1 4 3 4 4 3 3 4 2 0 0 5 3 4 3 2 5 3 5 5 5 6 2 3 3
14 15 17 20 21 20 19 17 18 19 7 5 2 3 4 3 1 3 3 5 6 5 4 3 3 1 2 3 6 8 7 4 3 2 3 2 2 3 4 4 6 5 8 6 3 4 6
13 13 15 18 19 18 16 15 15 19 16 6 3 2 3 1 1 1 2 3 5 4 4 3 5 2 2 5 2 1 3 6 6 6 5 2 1 2 4 4 2 3 1 0 3 6 7
11 13 13 16 16 15 13 13 12 13 13 12 5 2 2 1 1 2 1 2 4 3 3 3 5 5 1 3 4 4 3 2 2 3 5 4 3 0 1 2 7 1 2 3 3 5 6
12 12 13 13 14 11 9 9 11 10 10 5 9 5 3 3 4 2 2 2 1 2 4 4 3 6 2 2 3 1 3 2 4 7 5 5 3 3 1 1 5 4 2 3 3 4 4
12 11 13 12 13 10 6 6 7 10 10 5 5 4 3 1 3 3 3 3 4 2 2 4 5 3 3 1 2 4 4 4 3 3 2 3 2 2 2 3 7 4 2 1 3 4 1
14 11 12 12 12 11 8 4 5 6 9 7 1 4 3 2 4 7 6 4 1 1 2 3 2 1 2 1 1 2 3 3 2 4 4 4 3 3 1 2 6 4 2 4 5 2 2
14 12 12 13 14 12 10 8 5 5 6 7 4 4 3 4 4 7 11 11 6 5 4 0 1 1 2 3 1 1 3 1 3 3 0 3 6 4 8 6 5 6 5 3 3 4 4
Wind_Direction
6 4 1 0 358 359 359 4 7 13 22 42 49 54 64 69 66 72 73 52 325 316 300 311 265 116 125 82 45 29 108 159 157 147 121 112 89 119 117 113 105 110 209 303 261 272 256
4 4 360 358 358 358 360 4 11 16 22 30 48 64 54 43 39 27 1 354 309 302 291 269 211 152 130 112 70 69 117 110 129 116 106 95 127 128 107 104 109 176 246 264 263 263 249
7 5 2 357 358 357 359 2 9 15 24 26 36 36 42 36 26 3 343 330 310 276 272 318 106 139 75 121 95 90 82 77 115 116 94 94 117 85 120 103 142 51 329 314 283 285 268
11 3 1 360 357 355 357 359 6 14 22 29 30 36 28 22 13 2 350 349 350 202 170 130 121 121 80 136 130 128 96 89 98 98 99 102 104 95 80 137 35 39 53 351 237 295 320
12 5 3 358 358 358 358 0 3 15 24 32 29 33 32 15 12 11 31 54 67 107 120 112 87 80 41 119 119 130 123 107 95 90 85 94 73 79 52 78 38 20 324 330 312 239 322
12 8 3 0 4 2 1 1 0 8 29 41 36 32 34 33 23 30 96 89 84 88 96 89 105 101 234 85 95 119 122 121 98 87 43 46 52 70 47 73 214 347 6 295 264 279 273
11 10 6 3 6 8 6 3 1 4 19 35 38 35 60 44 34 68 120 73 33 40 33 53 58 88 62 103 86 99 130 91 70 49 83 22 74 207 217 169 112 105 256 273 257 269 294
11 10 9 4 8 13 14 11 7 2 14 26 36 43 60 52 50 77 82 63 25 12 62 35 68 80 115 75 109 57 140 89 80 92 89 39 217 228 168 130 148 227 277 279 289 257 267
9 9 10 9 9 13 12 12 12 13 21 22 27 38 69 63 49 58 66 55 37 9 79 40 28 32 11 43 85 149 84 63 91 105 175 137 155 78 129 136 188 229 222 235 249 319 269
7 6 9 10 9 12 14 11 11 15 13 17 24 30 45 41 43 24 40 7 359 350 80 2 6 29 19 166 94 215 150 108 81 162 154 225 244 192 182 245 177 270 207 236 266 294 300
5 4 4 8 10 11 14 14 14 7 7 12 21 35 47 64 99 40 332 8 356 311 66 332 2 321 330 31 139 102 20 9 17 339 112 266 197 192 229 220 176 250 17 257 269 267 297
3 4 2 2 7 10 11 13 14 13 3 6 26 26 9 30 63 54 63 14 4 44 71 18 357 39 61 283 76 79 54 38 253 315 223 230 204 217 216 224 187 272 306 276 251 243 242
360 360 2 359 3 7 9 9 12 7 2 348 2 29 30 23 96 73 342 27 40 69 256 31 60 250 322 66 89 148 185 112 92 13 358 306 217 227 174 289 165 216 286 313 347 214 244
357 358 360 358 358 1 4 6 4 2 360 355 309 315 342 0 357 74 349 48 63 22 58 178 121 358 32 342 46 72 87 300 202 128 290 4 335 195 167 212 331 182 209 251 293 288 300
355 356 355 357 355 356 358 2 2 358 352 344 322 286 304 340 293 162 70 61 94 77 134 134 176 15 279 244 221 268 204 323 267 173 216 303 277 115 195 155 175 92 231 239 262 227 276
354 354 354 354 355 353 354 357 1 358 356 356 17 327 356 12 131 151 64 91 81 3 348 126 205 193 66 51 312 5 319 212 287 173 188 323 298 221 37 112 257 259 332 279 241 291 285
351 354 352 354 352 353 352 354 359 1 3 7 72 54 0 103 102 50 62 62 319 276 225 207 358 165 140 165 222 197 265 250 222 184 182 313 261 292 100 206 166 239 230 251 261 252 304
346 353 354 353 352 352 351 352 356 2 7 23 45 47 358 177 54 24 42 331 327 314 346 312 246 262 184 173 191 232 219 214 177 153 185 214 235 270 239 227 326 349 137 195 222 185 223
343 348 356 353 352 350 354 354 357 358 8 14 65 227 352 290 108 48 324 350 299 358 5 4 324 352 33 191 299 216 245 292 155 164 207 180 238 312 346 41 145 156 228 254 150 198 235
340 342 350 355 352 352 350 356 356 359 10 59 77 47 346 35 7 124 134 8 337 333 295 328 357 41 9 37 63 316 337 333 341 232 220 176 206 205 203 219 290 296 335 262 188 169 166
335 339 347 355 355 355 357 1 4 4 10 92 44 248 170 71 343 104 115 131 22 3 353 16 35 47 275 19 351 1 333 322 266 356 107 164 252 191 254 240 236 254 271 297 214 244 207
333 336 342 352 358 359 4 8 12 5 31 70 111 124 8 96 6 332 349 207 135 278 346 343 59 324 1 105 172 273 6 189 335 322 42 348 282 345 287 187 223 261 230 215 220 173 124
334 335 336 348 356 2 5 7 17 17 17 85 55 105 106 306 27 92 227 192 206 175 195 201 226 250 315 243 215 224 226 267 252 324 310 36 25 16 268 346 315 287 216 197 196 216 158
329 331 328 341 353 359 9 9 18 29 41 74 65 74 86 231 124 258 192 203 201 239 169 216 168 187 273 335 264 220 219 233 227 240 199 277 17 143 260 346 0 252 17 360 239 250 223
326 324 324 332 345 357 12 20 18 32 44 62 60 68 85 164 213 275 333 283 319 316 272 258 220 205 70 26 359 349 336 317 204 187 202 204 142 245 186 224 280 129 190 185 185 291 211
320 311 316 320 333 350 5 33 11 17 31 48 55 69 108 115 250 154 163 168 256 276 311 251 323 330 27 105 88 337 273 273 300 319 159 132 114 140 186 174 247 224 192 196 154 286 304
308 300 302 305 317 327 341 7 27 3 9 28 61 49 103 112 242 161 190 194 153 160 233 300 334 343 358 343 156 177 234 190 245 257 293 332 359 218 221 260 291 266 248 263 99 240 280
300 293 287 293 299 306 303 309 352 13 356 354 43 69 116 164 257 197 199 162 142 165 171 265 26 340 16 24 272 228 194 233 298 239 195 190 164 222 127 273 299 174 68 174 224 278 234
289 289 276 276 283 290 287 285 289 334 349 345 301 325 308 176 231 215 230 233 210 186 147 20 244 235 211 90 237 158 260 250 191 264 62 259 197 192 184 215 208 211 240 245 193 226 248